MUBLCOM

导读

MUBLCOM(多路径超视距通信)卫星由美国国防部高级研究计划局发起,于1999年5月18日发射。这颗小卫星重约45千克,旨在验证军队超视距战场通信方案,论证由64颗低轨卫星组成全球通信星座的可行性,支持保密抗干扰的语音与数据通信,可实现全天候快速部署,为后续全球通信卫星网络发展提供了关键技术验证。

基本信息
目录编号:
25736
目录名称:
MUBLCOM
国际标识:
1999-026B
轨道中心:
EARTH
卫星名称:
MUBLCOM
卫星全名:
--
卫星状态:
在轨 (已飞行9919 天)
发射日期:
1999-05-18 UTC
国别 :
美国 (US)
星等 :
--
轨道信息
数据来源 国际轨道数据 AOE轨道数据
星历时间 2026-07-13T21:34:38+0800
15小时前
查看轨道信息
2026-07-10T00:00:00+0800
4天前
查看轨道信息
半长轴 7080.175km 7080.191km
偏心率 0.0005317 0.0004959
轨道倾角 97.683° 97.684°
近地点辐角 135.859° 146.428°
升交点赤经 52.373° 48.773°
平近点角 224.303° 291.109°
近地点 698.273km 698.542km
远地点 705.803km 705.566km
周期 98.816分钟 98.816分钟
每日圈数 14.572593 14.572543
详细信息
使用方式:
暂无
2D轨道图
3D轨道图
轨道高度分析图
轨道倾角分析图
轨道综合分析图
查看轨道综合分析图